Theta_e
314 314 313 313 313 313 314 315 314 312 310 309 307 307 306 305 305 306 306 307 307 307 307 307 308 307 308 307 307 308 307 311 314 315 319 316 312 313 313 314 314 313 313 313 313 314 314 314 314 315 316 317 319 319 319 319 319 320 320 317 314 316 318 318 319 317 318 318 316 315 315 316 316 314 313 314 314 314 316 315 315 316 315 316 315 317 327 329
313 313 313 313 313 313 314 314 313 312 310 309 308 307 306 305 305 305 306 306 307 307 307 307 308 307 308 307 307 308 308 314 316 316 318 314 311 313 314 314 314 313 314 315 314 314 314 314 314 315 315 315 317 319 319 319 319 319 320 317 316 319 319 318 319 317 318 318 316 316 315 315 316 315 315 314 315 315 315 315 315 316 315 316 315 317 326 329
313 312 312 313 313 313 313 313 312 312 311 310 309 307 306 305 305 306 306 306 307 307 307 308 307 307 307 307 308 307 311 316 315 315 317 312 312 314 313 313 314 314 314 316 315 314 315 314 315 315 315 315 315 317 318 318 318 318 320 318 318 320 318 317 318 317 316 316 317 316 315 316 315 316 315 314 315 316 316 316 316 317 316 317 315 317 325 328
312 311 312 312 312 312 312 313 313 313 313 311 310 308 306 306 305 306 306 306 306 307 307 307 307 308 307 307 309 309 315 317 313 316 315 311 313 313 313 313 313 314 314 314 313 314 314 314 315 315 315 315 314 315 315 316 317 317 316 316 317 317 317 316 316 316 314 315 317 316 315 315 315 315 315 315 315 316 316 316 316 316 316 318 316 317 323 328
311 311 312 311 311 311 312 313 313 313 313 312 310 308 307 306 305 305 306 306 306 307 307 307 307 307 306 308 308 310 317 315 313 317 313 311 313 311 312 313 313 314 313 313 314 314 314 314 315 315 315 315 315 315 315 315 316 316 315 316 316 316 317 315 314 314 313 314 316 316 315 315 315 314 315 315 315 316 316 316 317 317 317 319 317 318 322 326
311 311 311 310 310 311 311 312 312 313 313 313 311 308 307 307 305 305 306 306 306 306 307 307 307 306 307 308 307 310 315 312 313 317 312 311 312 312 313 314 314 314 313 314 315 315 315 315 314 315 315 315 315 315 315 315 315 316 316 315 315 315 316 315 313 313 312 315 316 316 315 315 315 315 315 315 316 316 316 316 317 316 317 319 319 319 320 324
311 311 311 310 310 310 310 311 311 312 312 311 309 308 307 306 305 305 306 306 306 306 306 307 306 306 307 308 309 313 315 313 314 315 312 312 312 312 313 314 316 314 314 315 315 315 314 314 314 315 315 315 315 315 315 314 315 316 316 315 314 314 315 314 313 312 312 315 315 315 315 315 315 315 316 315 316 316 316 316 316 315 314 316 319 320 320 323
311 311 310 309 309 309 310 310 310 310 310 309 308 307 307 307 306 305 305 306 306 306 306 306 306 306 307 310 314 314 314 316 315 313 312 312 311 312 313 315 316 315 315 315 315 315 314 314 314 315 315 315 315 315 315 315 315 316 316 315 314 314 314 313 312 312 312 313 313 313 314 316 315 314 314 315 316 316 316 316 315 315 314 314 317 319 320 321
310 310 309 309 309 308 309 309 309 309 309 309 308 307 307 307 306 306 305 305 306 306 307 306 306 307 307 311 316 312 314 316 314 312 312 312 312 312 313 315 316 315 316 315 315 315 315 315 314 314 315 315 315 315 315 315 315 316 316 315 315 315 314 312 313 312 313 313 313 314 315 316 314 313 314 315 316 316 316 315 315 315 314 314 315 317 319 319
310 309 309 309 309 308 308 308 309 310 310 309 308 308 307 307 306 306 306 305 306 306 307 307 307 308 308 312 313 311 317 317 313 313 312 312 313 313 315 316 315 316 316 315 316 315 316 316 315 316 316 315 316 315 315 316 316 316 315 315 315 315 314 313 314 313 313 314 313 314 316 315 313 313 315 316 316 316 315 315 315 315 315 315 315 315 318 319
310 310 310 309 309 308 308 309 309 310 310 309 309 309 308 307 307 306 306 305 305 306 307 308 308 309 311 313 310 312 317 317 314 312 312 312 313 314 315 315 315 316 316 316 317 316 316 317 316 316 317 315 315 315 315 314 315 316 316 316 315 315 315 314 315 314 314 314 313 314 316 316 314 313 315 317 315 315 315 315 316 315 315 315 316 316 317 318
311 311 311 310 310 309 309 309 310 311 310 309 309 308 308 307 307 306 306 306 306 306 307 308 308 310 312 311 311 316 316 315 314 312 312 313 313 314 316 315 315 316 316 317 317 315 315 316 317 316 316 316 315 315 315 314 315 315 316 317 316 316 316 315 316 315 315 315 313 314 315 315 317 315 316 317 314 315 315 316 316 316 316 316 316 317 317 318
311 311 311 311 311 310 309 309 310 310 310 309 308 308 307 307 306 306 306 306 306 307 307 309 308 309 311 311 314 317 315 314 313 312 312 313 314 314 315 315 315 314 316 317 315 314 314 315 316 315 316 316 316 315 315 315 315 316 316 317 317 316 316 317 316 315 316 315 314 314 313 314 318 318 317 317 315 316 315 316 316 317 317 316 317 317 317 318
312 311 312 311 310 311 310 310 311 311 309 308 307 307 307 306 306 306 306 307 307 307 308 309 309 309 311 312 314 316 316 313 313 313 312 313 314 315 314 315 314 314 315 315 314 313 314 316 316 315 315 316 315 314 315 316 315 317 316 316 317 315 315 317 316 315 316 314 314 315 312 314 318 318 317 316 315 315 316 316 317 317 317 317 317 317 317 317
312 312 311 311 310 311 312 311 311 311 309 308 308 307 307 307 307 306 306 306 307 308 307 310 310 310 311 310 312 315 314 313 314 314 313 314 316 315 315 315 314 314 314 314 314 314 315 317 317 316 315 314 315 316 317 317 316 318 314 313 317 314 314 318 315 315 316 314 314 315 313 315 318 318 316 313 314 314 315 316 317 317 317 317 317 317 317 317
313 312 311 311 310 311 312 312 312 310 309 308 307 307 307 308 308 307 307 307 308 308 309 313 312 310 311 312 312 313 314 316 315 313 312 314 317 316 315 315 315 315 315 315 315 315 317 316 316 317 315 314 316 317 317 315 315 317 313 312 316 313 313 316 314 314 316 315 315 315 314 316 318 318 316 313 314 314 315 316 317 317 317 317 317 317 317 317
313 312 312 311 310 310 311 311 311 311 309 308 308 308 308 308 308 309 309 308 310 310 311 314 312 310 310 311 312 313 315 318 316 313 312 313 316 316 316 316 316 316 316 316 316 317 317 316 315 316 316 315 317 317 315 312 311 314 314 313 315 315 312 313 314 315 314 314 316 316 315 316 316 317 317 315 315 315 316 316 317 317 317 317 318 317 317 317
313 312 312 312 311 311 311 310 311 311 310 308 308 309 309 309 309 311 312 310 310 310 310 310 309 310 309 309 312 314 316 317 315 314 313 312 314 315 316 317 316 316 316 316 316 317 317 316 316 317 316 315 316 316 313 311 311 313 314 312 312 314 312 312 314 315 315 315 315 316 316 316 316 317 317 317 317 316 317 317 317 317 317 317 317 318 318 318
314 314 313 313 313 312 311 311 311 311 309 309 309 310 311 311 310 313 314 311 309 309 309 310 309 310 310 310 314 315 315 315 314 314 314 313 313 314 316 316 317 316 315 315 316 316 317 317 316 317 317 315 316 316 314 314 313 313 315 313 311 312 312 313 315 314 314 315 315 315 315 316 316 316 317 317 317 317 317 317 317 317 317 317 317 317 318 318
316 315 315 314 314 313 312 311 311 311 310 310 312 312 312 312 312 312 312 310 310 310 311 311 310 311 312 313 316 314 314 314 314 315 314 313 314 315 316 316 317 316 315 316 317 315 316 317 316 316 316 316 316 316 315 315 313 313 314 313 313 313 312 315 317 313 314 314 314 316 315 316 316 316 317 316 317 316 316 317 317 317 317 318 318 318 319 319
318 317 316 316 314 314 313 312 312 311 310 311 314 314 311 311 312 311 311 309 311 312 312 312 312 313 313 315 316 315 314 314 315 316 314 313 315 315 315 315 315 315 315 317 317 315 315 315 316 316 316 317 316 316 315 314 314 314 313 313 313 314 313 316 316 313 313 313 314 315 315 316 316 316 316 316 316 316 316 317 317 318 317 318 318 319 319 319
319 318 318 317 316 315 314 313 313 311 310 312 314 315 312 311 311 310 311 310 313 313 312 312 312 312 313 314 315 314 315 315 315 316 314 313 315 315 314 314 314 315 316 316 315 315 315 314 315 316 315 315 315 315 315 314 315 315 314 315 314 315 315 315 315 314 313 313 314 315 315 315 316 315 316 316 315 316 316 316 317 318 318 318 318 319 319 320
321 320 319 318 317 316 315 314 313 311 312 314 316 316 312 310 309 308 311 311 313 313 311 311 311 311 313 313 314 314 314 314 315 316 314 314 315 314 314 314 313 316 316 315 314 314 314 314 315 315 314 314 314 314 314 314 315 315 316 314 314 317 315 311 313 314 314 313 314 315 315 316 316 316 316 316 316 316 317 317 318 319 319 319 319 319 319 319
321 321 320 319 318 317 316 314 314 314 314 314 315 314 311 310 309 309 313 312 310 312 311 311 311 311 313 313 313 313 313 313 315 316 315 314 314 314 314 314 313 315 315 314 314 313 314 314 314 314 314 314 314 314 315 314 313 316 317 315 313 316 315 312 314 315 314 314 314 315 315 314 317 319 318 318 319 318 318 318 318 319 319 320 320 320 320 319
322 321 321 320 318 317 316 315 316 316 314 313 312 310 310 311 311 311 314 312 310 312 312 312 312 311 312 313 313 314 313 312 313 316 316 314 314 313 313 314 314 314 314 314 314 313 314 313 313 315 314 314 315 314 315 315 312 313 318 318 315 314 315 315 317 316 312 313 315 316 312 311 316 319 319 319 319 318 319 319 319 319 320 320 320 320 320 320
322 322 321 320 318 317 316 317 318 316 315 316 313 308 309 312 312 312 313 311 311 312 311 311 312 311 311 313 314 313 311 311 313 315 316 314 314 313 313 313 313 314 314 314 314 315 314 312 314 316 315 316 317 314 316 317 312 311 317 319 316 316 317 317 318 315 311 311 315 315 312 312 314 315 316 317 316 316 317 318 319 319 320 320 321 321 321 320
322 321 321 321 318 317 318 320 318 315 317 318 313 307 309 312 311 312 311 311 313 314 312 309 309 310 311 313 313 310 310 312 313 314 314 313 313 312 312 313 313 313 314 314 313 314 314 313 315 317 317 317 317 315 317 317 312 314 318 317 316 317 318 318 318 315 314 316 316 315 315 315 314 314 316 316 315 315 316 316 318 319 319 320 320 321 320 320
321 321 321 321 319 318 320 319 317 318 318 317 311 308 310 312 312 312 308 311 315 314 313 310 308 309 312 313 312 310 310 311 313 314 313 312 313 312 312 313 313 313 314 313 313 314 315 315 316 316 316 317 316 316 319 317 315 318 317 317 317 318 319 319 317 315 317 318 315 316 318 315 313 314 316 317 315 315 316 317 318 318 321 322 321 320 319 317
321 321 321 321 319 319 320 318 318 320 318 314 310 309 311 312 313 314 310 312 316 314 312 310 309 310 311 312 311 310 309 310 314 314 312 312 312 312 312 313 313 314 313 312 314 316 314 313 315 316 316 316 315 315 317 318 316 316 316 317 318 319 318 319 318 315 316 316 315 318 319 313 310 312 316 318 316 316 317 316 318 319 323 324 321 320 317 315
320 321 321 320 319 318 318 318 319 320 317 313 310 308 312 314 314 315 314 315 318 316 311 310 311 311 311 311 310 310 310 311 313 312 312 312 312 312 311 312 313 314 315 314 315 315 312 310 312 315 315 315 313 312 314 317 316 316 318 318 318 318 318 317 317 315 314 315 315 318 317 312 310 312 315 318 317 317 318 316 318 321 323 323 320 318 316 315
318 320 320 319 319 317 317 318 319 319 317 312 310 310 314 317 316 317 318 317 317 317 311 310 312 311 311 311 311 310 310 312 313 313 313 313 312 312 311 312 313 314 315 315 315 315 314 313 314 314 313 313 314 313 313 314 316 318 319 317 315 316 317 316 316 317 315 314 315 317 317 314 311 311 314 318 317 317 318 316 316 317 321 323 320 317 315 315
316 319 319 319 319 318 318 319 318 320 316 311 313 317 319 319 318 320 320 315 316 317 314 313 313 312 311 312 312 311 311 313 313 313 314 314 313 313 312 313 313 314 314 314 316 317 316 316 315 313 311 313 315 315 314 314 316 318 317 314 314 314 315 316 318 319 316 315 315 316 318 317 313 313 315 317 317 317 317 317 317 317 319 323 322 318 316 315
314 316 318 318 318 318 318 318 318 319 314 310 316 319 321 322 321 322 320 316 317 317 316 315 313 312 312 312 313 312 311 313 313 314 315 315 315 314 314 313 313 314 314 313 316 317 316 317 317 315 312 312 315 315 315 314 315 316 315 315 314 312 314 317 317 318 316 315 315 315 317 317 314 314 316 316 316 316 317 317 319 320 319 321 322 319 317 315
313 315 317 317 317 318 318 317 317 318 313 312 316 318 319 322 322 321 321 319 317 316 315 315 313 312 312 313 314 312 312 314 314 314 316 316 316 316 315 314 313 315 315 314 315 316 316 317 317 317 314 313 315 315 315 316 316 316 316 316 315 312 313 315 315 315 315 314 313 314 316 315 313 315 316 317 317 317 317 318 319 320 320 321 321 320 319 316
313 313 315 317 317 317 317 316 317 316 313 314 316 317 318 321 321 321 322 320 318 316 315 315 314 314 313 314 315 312 312 315 314 314 316 316 316 316 316 315 314 315 315 314 314 315 315 315 317 317 314 314 315 316 316 317 316 316 317 318 317 315 313 312 314 314 313 313 314 315 316 315 314 315 316 316 316 316 317 318 318 319 319 320 320 321 322 319
312 313 314 315 316 317 316 316 316 313 313 316 316 316 318 320 321 322 321 320 319 317 315 315 316 316 315 315 315 313 313 316 316 315 316 316 316 316 316 316 315 315 315 314 314 315 314 315 318 316 314 314 314 317 318 316 316 316 318 319 318 317 314 313 314 314 312 313 314 314 314 314 313 315 316 316 316 316 317 317 317 318 319 320 320 322 325 321
312 313 314 315 316 317 316 316 315 313 314 317 317 318 318 318 321 322 321 320 318 316 316 317 317 316 316 316 316 314 313 315 316 315 315 316 316 316 316 317 315 314 314 313 313 315 313 314 315 315 316 314 312 314 316 316 316 317 317 317 316 316 315 313 314 314 314 315 314 313 313 312 311 314 317 316 315 316 316 317 317 318 319 320 322 325 326 321
313 313 314 315 315 315 316 316 314 312 314 316 316 317 317 316 318 320 320 320 318 317 318 319 319 318 317 317 316 315 314 314 316 315 315 316 315 315 316 317 316 315 314 312 313 315 314 314 314 314 316 314 311 313 315 314 315 316 316 316 315 315 315 313 314 315 315 316 315 314 313 313 312 313 315 316 316 316 316 316 317 317 318 319 321 324 324 320
312 312 313 314 314 315 315 315 313 313 315 316 315 316 316 316 317 318 319 320 320 320 319 318 319 318 318 318 317 316 314 314 316 315 315 316 315 315 315 316 317 315 314 312 312 314 314 313 314 312 313 314 312 313 315 315 314 314 315 316 316 317 315 314 315 314 314 315 316 315 314 313 314 314 314 315 315 316 316 317 318 318 319 319 320 323 324 322
311 312 313 313 314 314 315 314 313 314 316 316 314 314 315 316 317 318 319 319 321 323 323 323 323 320 319 319 318 317 316 316 317 316 315 316 316 316 315 315 316 316 314 313 313 314 313 312 314 313 312 314 314 314 315 316 315 313 313 315 316 316 315 315 316 314 314 315 314 315 315 313 314 316 316 316 316 316 317 317 319 320 320 320 321 323 324 322
310 311 313 314 314 314 314 313 314 315 317 317 316 315 315 316 316 317 318 318 320 322 322 324 326 325 323 321 319 318 317 316 317 317 316 316 316 317 316 314 316 316 315 314 314 314 314 312 313 314 313 314 315 316 316 316 317 315 313 314 315 316 316 316 318 316 315 315 315 315 316 314 315 318 316 316 317 318 320 321 321 321 321 322 322 321 320 319
310 310 311 314 315 314 314 315 315 314 316 317 317 316 315 316 316 317 318 318 318 319 320 320 322 323 323 322 321 321 319 318 319 318 317 317 316 317 316 314 315 315 315 315 315 316 316 314 313 315 317 317 316 315 314 316 317 317 316 316 315 316 316 316 317 317 316 316 316 316 317 316 318 321 318 317 319 320 322 323 322 320 320 321 321 318 316 316
308 309 311 313 314 313 314 316 316 315 315 316 316 316 316 316 316 317 317 317 317 318 319 319 319 320 322 321 321 322 321 320 321 319 318 318 318 317 315 314 315 316 315 315 316 316 316 315 314 315 316 316 316 314 314 314 315 317 317 317 317 317 316 316 316 317 317 318 316 317 318 317 320 325 322 319 321 320 320 319 318 319 320 319 318 316 315 315
306 307 310 312 314 313 313 315 316 316 315 315 315 316 316 315 316 317 317 317 317 317 318 319 319 319 321 321 320 321 321 320 320 319 317 318 317 316 315 316 315 314 315 317 317 315 315 315 314 315 315 316 317 316 315 315 315 315 316 317 317 318 318 318 318 316 318 319 319 318 317 316 320 324 320 318 319 318 317 316 316 318 320 319 318 317 315 314
307 306 308 311 313 312 313 314 315 315 315 315 315 316 316 316 316 316 317 317 317 317 318 318 319 319 320 321 320 320 321 320 320 319 318 318 318 316 316 317 317 315 318 322 322 316 316 318 315 315 316 317 319 319 318 317 315 315 316 317 317 318 318 319 318 317 318 320 321 320 317 316 317 319 317 316 317 317 316 316 315 315 317 317 318 318 316 314
307 306 306 309 310 311 312 313 313 313 313 314 315 315 315 316 316 316 316 317 317 317 317 318 318 319 319 319 319 320 320 319 320 320 319 318 318 317 315 315 317 317 317 322 323 318 318 319 317 315 316 316 318 321 321 318 316 316 317 317 317 318 319 319 319 318 318 319 320 319 318 318 318 317 317 317 317 317 317 317 317 317 318 319 319 318 316 315
307 307 305 307 308 309 312 313 313 313 313 313 314 314 314 315 315 316 316 316 316 317 317 317 318 319 319 319 319 319 319 319 319 319 319 318 318 317 313 313 315 314 314 318 321 320 318 317 317 316 317 316 317 320 320 319 318 317 317 317 317 318 319 320 320 319 318 319 318 318 319 320 318 317 317 317 316 317 318 317 318 318 320 321 319 317 316 316
306 307 306 306 307 308 310 311 312 312 312 313 313 313 313 314 314 315 315 315 315 316 317 318 318 318 318 318 319 319 319 320 319 319 318 318 319 317 315 315 314 312 314 317 317 319 317 316 317 318 317 316 316 317 318 319 319 318 318 318 318 318 319 320 320 318 318 319 318 318 319 320 319 317 317 317 317 317 317 318 318 318 320 319 317 318 320 320
305 306 306 307 307 307 309 310 311 312 312 313 313 313 313 313 313 314 314 315 315 315 316 317 318 317 317 317 318 319 319 320 320 319 318 318 318 318 318 318 314 310 313 316 316 317 316 315 317 318 317 317 317 317 318 318 318 318 318 318 319 319 319 318 318 318 318 318 317 317 319 319 318 317 317 317 318 318 318 318 318 319 320 319 318 319 320 320
304 305 305 306 307 307 308 308 309 311 312 312 313 312 312 313 313 313 313 314 315 315 315 316 316 316 317 317 318 318 318 319 319 319 317 317 318 318 318 319 316 311 311 314 315 314 315 316 316 315 316 318 317 318 318 318 319 319 318 318 319 320 320 319 318 318 318 319 318 317 319 319 317 317 317 317 318 318 318 318 318 318 318 318 318 320 320 320
303 304 305 306 307 307 307 307 308 309 310 311 312 312 312 312 312 312 313 314 314 314 315 315 315 315 316 316 317 318 317 317 318 318 318 317 317 317 316 318 318 314 310 311 313 313 313 315 314 314 317 318 318 318 319 319 319 319 318 318 318 319 320 320 319 318 318 319 319 319 319 319 317 317 317 317 318 317 317 318 318 318 318 318 318 318 319 320
302 302 303 305 306 307 307 306 307 307 308 309 310 311 312 312 312 312 313 313 313 313 313 314 315 314 315 316 316 316 316 317 317 317 317 317 317 317 317 317 319 316 312 311 312 311 311 313 314 315 318 319 318 319 320 319 320 320 319 318 317 317 318 318 319 319 318 318 319 320 319 317 317 317 317 317 317 317 318 318 318 318 317 317 317 317 317 318
Wind_Speed
5 5 3 2 2 1 1 1 1 3 4 4 5 6 7 7 7 8 8 8 8 8 8 7 6 5 4 3 3 3 2 2 4 6 5 3 5 6 5 4 2 3 3 4 6 5 4 4 4 3 4 3 0 1 1 1 1 3 4 5 5 4 2 2 4 2 1 2 7 9 10 9 7 7 4 3 5 6 3 5 5 3 3 4 8 8 9 11
6 5 3 3 2 2 2 1 1 3 4 4 4 5 6 6 7 7 8 8 8 8 8 7 6 5 4 4 3 3 2 3 5 6 4 5 7 6 5 4 2 3 3 3 5 7 5 4 5 5 4 2 0 1 2 0 1 3 3 5 4 0 2 3 1 2 3 2 5 9 9 7 4 6 7 5 7 8 7 7 8 7 7 8 9 10 11 11
7 5 3 4 3 2 2 1 1 2 2 3 3 4 5 5 6 7 7 8 8 7 7 6 6 5 4 4 2 3 3 4 6 4 5 7 7 5 5 3 3 3 3 1 4 5 3 2 6 6 4 2 1 2 3 1 1 2 2 6 1 4 4 4 4 5 5 3 3 8 6 6 2 4 6 6 7 7 9 8 8 9 10 12 11 12 13 12
7 5 4 5 3 2 2 1 1 0 1 2 2 3 4 5 6 7 7 8 8 8 7 6 5 4 4 3 3 3 3 5 4 4 6 8 6 5 4 4 3 2 3 1 2 3 2 3 5 5 4 3 2 3 4 2 0 1 2 3 3 3 1 4 4 5 5 3 2 6 6 7 4 3 5 6 7 7 8 9 9 9 8 12 13 13 14 14
7 5 5 5 4 2 2 1 1 1 1 1 2 3 4 5 6 6 7 7 8 8 7 6 5 5 4 3 4 2 2 4 3 5 8 9 6 5 4 4 3 2 3 2 1 2 3 5 5 4 4 3 5 5 3 3 1 2 1 2 5 3 1 4 3 4 4 2 2 6 6 6 5 3 6 8 9 5 1 2 4 2 1 9 14 13 14 14
7 6 6 5 4 3 3 2 2 1 1 3 3 4 4 4 5 6 7 7 8 8 7 7 5 5 4 3 3 3 4 2 3 4 9 9 6 5 4 4 3 3 2 2 2 3 4 5 6 5 4 3 5 4 3 4 1 2 2 3 4 4 3 3 2 2 2 1 3 4 2 3 4 6 7 10 13 4 6 6 5 6 6 7 12 13 13 14
7 7 6 5 5 4 3 3 3 3 4 5 5 4 4 3 4 5 6 7 7 7 7 6 6 5 4 3 2 4 6 1 2 5 10 9 6 5 4 4 2 3 1 3 4 4 5 6 6 4 4 3 4 3 3 3 2 4 1 5 3 4 3 2 2 1 1 1 1 1 1 2 7 6 3 8 14 9 2 7 6 6 6 5 9 12 12 14
9 8 7 6 5 4 3 3 3 4 4 4 4 4 4 3 4 4 5 6 6 7 7 6 6 5 4 4 2 5 5 2 3 7 9 8 6 4 3 4 3 2 0 3 2 3 4 6 5 4 4 2 3 4 3 4 4 4 1 5 2 3 3 3 2 2 1 1 2 2 4 4 3 1 3 10 13 11 6 5 5 4 5 5 8 10 11 12
9 8 8 6 4 4 4 3 3 3 3 3 4 4 4 4 4 5 5 6 6 6 6 6 5 4 4 4 4 5 3 3 5 8 9 7 5 4 3 2 2 0 1 1 2 3 4 4 4 3 1 3 3 5 2 4 2 0 4 5 4 4 4 3 3 3 1 1 0 4 6 3 2 2 7 15 13 7 5 5 4 5 5 6 7 9 11 11
8 7 7 6 5 4 3 3 2 3 3 2 2 3 4 4 4 5 5 6 6 6 6 6 5 4 4 4 5 4 2 4 7 9 8 7 6 4 2 1 1 1 2 1 1 2 2 1 3 1 1 4 3 3 0 2 1 3 6 5 4 5 4 2 3 4 2 1 2 5 5 2 3 1 8 8 4 3 4 6 6 5 8 9 8 9 11 11
6 6 6 6 4 4 3 2 1 3 3 2 1 1 3 3 3 4 5 6 6 6 6 5 5 4 3 5 6 3 3 5 8 9 8 7 5 3 1 1 2 0 1 2 1 2 2 1 4 1 1 4 5 4 2 1 1 4 6 5 5 4 4 4 4 5 3 2 2 4 5 6 3 5 11 4 4 3 5 7 7 7 8 8 9 8 8 10
5 5 5 5 4 3 2 2 1 2 3 3 1 0 2 3 3 4 5 6 5 6 6 5 6 4 2 6 4 1 4 5 8 9 7 6 5 3 2 2 2 1 1 2 4 3 3 3 0 0 2 4 6 5 3 2 1 4 4 4 6 5 5 7 5 4 4 2 2 2 5 10 9 12 15 6 6 4 5 6 7 8 8 7 8 7 7 8
5 4 4 4 4 4 2 1 1 2 2 2 1 1 2 2 3 4 5 6 6 6 6 5 5 3 3 4 1 4 5 6 8 8 7 6 5 4 4 3 3 2 0 4 6 4 5 3 3 2 3 1 3 3 4 3 1 4 4 4 4 6 6 8 5 4 4 2 3 3 5 6 9 14 10 6 6 5 6 8 8 8 7 7 7 7 7 8
5 4 4 3 3 3 2 1 1 2 1 1 1 2 2 2 3 4 5 6 6 6 5 5 4 3 3 1 3 4 5 7 7 7 8 7 5 6 6 5 5 5 5 9 8 6 6 3 1 5 3 3 4 3 4 5 3 4 3 3 4 5 3 7 5 5 5 3 4 4 5 6 5 4 6 6 4 5 8 9 8 8 7 7 7 7 8 8
6 5 5 4 2 2 1 0 1 2 1 1 1 2 2 2 3 4 5 6 6 5 4 4 4 3 4 2 2 3 4 5 5 6 10 9 6 6 7 7 9 9 10 12 10 9 7 3 2 5 4 2 4 5 5 5 4 3 3 4 4 4 3 6 4 5 4 2 6 6 4 7 6 3 7 3 2 4 8 9 8 8 8 7 7 7 8 8
6 6 5 4 3 3 2 1 0 1 1 1 1 2 2 2 3 4 5 5 5 5 3 3 4 3 4 3 3 3 3 4 6 8 11 10 5 6 8 8 9 9 8 10 9 8 5 3 1 1 3 3 5 5 4 4 4 4 5 4 4 5 4 5 3 3 2 2 7 10 6 5 2 3 6 4 3 5 7 7 8 8 8 8 7 7 7 7
8 7 6 5 3 3 2 2 1 1 1 1 2 2 2 2 3 4 5 6 5 4 2 1 2 3 3 3 2 3 4 4 6 7 10 9 5 7 9 7 6 6 6 6 5 4 2 2 1 1 2 4 4 4 4 5 5 6 5 4 4 5 4 3 3 3 3 3 6 10 9 10 8 6 4 6 7 7 7 8 9 9 9 9 8 7 8 8
6 5 5 4 2 1 2 1 1 2 2 2 3 3 4 4 5 5 4 6 5 4 1 0 1 3 3 4 3 3 5 5 6 7 8 8 6 6 4 3 6 7 7 5 2 2 1 2 2 2 3 4 4 5 6 4 3 4 5 5 4 5 6 4 2 5 5 5 7 9 10 13 13 12 12 9 8 9 10 11 12 12 12 11 10 10 10 10
5 4 4 3 2 2 2 1 1 2 1 2 4 6 7 6 5 4 3 3 3 2 1 3 6 3 2 5 5 6 7 7 7 6 6 6 7 6 2 3 6 5 5 4 4 3 1 3 3 3 5 6 7 8 6 1 4 2 2 3 3 3 5 2 4 4 2 4 7 10 11 13 13 12 13 12 11 12 13 12 11 11 11 11 11 11 11 11
7 6 4 3 3 2 1 1 1 1 1 4 6 6 4 4 4 4 4 4 3 0 3 0 3 1 3 5 7 8 9 7 4 4 6 8 8 6 4 5 5 4 5 3 3 2 1 3 5 6 6 7 9 7 1 3 4 3 2 4 4 4 3 3 7 3 0 4 8 9 12 15 14 12 12 12 13 15 15 14 13 12 11 10 11 12 12 13
8 7 6 4 2 1 1 2 1 1 2 5 5 2 1 2 3 2 4 5 2 2 3 4 3 2 3 4 7 8 5 3 2 4 7 9 7 6 7 6 6 5 3 2 4 2 2 5 7 7 3 1 3 3 1 1 2 4 4 4 4 4 4 4 6 2 2 2 7 8 11 15 15 13 12 12 14 16 16 15 15 15 13 11 12 14 13 11
10 9 7 5 3 2 1 1 1 1 2 4 5 4 3 3 0 1 1 3 3 2 1 1 1 1 4 3 6 4 2 4 5 6 8 9 8 7 7 7 8 6 5 4 3 3 4 7 8 5 4 6 3 2 2 4 4 4 3 4 4 2 3 2 6 3 2 2 6 8 10 14 16 15 14 15 15 16 17 16 15 13 12 12 12 13 11 11
11 10 9 7 5 4 2 1 2 2 2 4 5 5 3 3 1 1 2 3 2 2 3 4 4 4 4 2 5 5 5 5 6 8 10 9 8 5 6 9 10 6 6 8 7 5 5 5 4 4 6 5 3 3 4 3 4 5 4 4 4 0 2 2 3 3 5 4 6 10 9 12 15 15 15 17 16 16 17 17 14 12 12 14 13 11 11 12
12 12 11 9 7 5 2 1 2 3 3 5 9 9 3 1 2 0 2 3 1 2 2 2 3 5 5 3 6 9 5 1 3 8 11 10 7 4 5 9 10 8 7 10 10 10 6 1 3 3 4 5 4 5 6 5 5 6 7 6 5 3 4 4 2 1 5 5 4 8 9 8 10 11 11 9 8 11 13 13 12 11 13 13 11 11 11 12
13 13 13 12 10 7 4 2 3 3 4 5 10 13 7 3 2 2 1 3 3 2 1 2 2 4 5 5 7 7 1 1 1 6 12 10 5 5 4 3 6 9 10 11 10 11 6 4 4 4 4 5 6 6 7 6 5 6 7 8 9 8 6 4 4 5 5 3 2 3 7 4 3 6 7 4 5 9 9 10 11 12 11 10 9 10 10 10
15 15 15 14 13 11 6 2 3 4 4 4 7 10 8 5 3 1 1 3 4 3 3 4 4 6 8 7 7 4 1 4 2 4 9 6 1 1 3 3 1 5 7 7 6 6 2 4 3 5 5 6 5 6 6 6 6 5 3 3 7 8 5 4 4 4 4 4 1 2 5 6 3 6 10 9 10 13 11 10 11 11 9 8 8 8 7 6
16 16 17 16 17 16 7 1 5 5 2 2 4 9 10 7 4 1 2 3 5 5 5 2 2 5 8 8 10 7 2 4 6 4 5 3 1 1 3 6 4 2 2 3 3 2 5 6 5 5 6 6 6 6 6 8 7 3 1 3 2 4 3 2 3 3 4 7 4 7 5 8 7 7 12 14 14 16 14 11 11 11 9 7 6 4 3 2
17 18 18 19 21 19 8 3 6 5 2 2 4 11 11 7 4 1 3 5 3 5 4 2 2 4 5 5 8 5 1 4 5 3 3 1 1 1 5 8 7 7 7 6 6 2 5 8 9 9 8 7 5 1 5 11 7 0 2 2 2 2 0 1 1 3 3 6 6 6 6 6 8 4 10 14 14 13 12 11 11 9 5 3 2 2 1 0
16 18 19 21 22 21 14 7 5 4 4 2 5 11 10 6 3 1 2 5 2 3 2 3 4 4 6 6 6 3 2 2 0 2 4 1 1 1 4 6 7 9 10 9 7 1 2 2 4 7 7 5 3 6 2 6 4 3 4 4 5 4 3 2 2 4 2 6 7 6 9 5 10 5 6 8 8 9 9 9 7 4 4 4 4 3 2 1
14 16 18 21 23 22 17 11 9 8 5 2 6 10 8 4 3 4 4 4 3 3 2 2 4 7 11 10 7 5 4 2 3 5 5 3 3 1 2 1 4 5 6 7 6 1 3 2 1 3 2 2 6 7 5 2 4 6 7 5 5 3 2 1 2 1 2 7 6 7 12 6 8 5 5 7 5 6 8 6 4 4 6 5 4 4 3 2
11 14 17 22 25 24 15 8 15 16 6 3 9 8 6 2 1 6 6 0 0 3 4 4 5 10 15 14 8 7 6 3 5 9 6 4 5 5 4 3 2 3 3 5 5 3 3 2 1 1 1 3 7 7 5 3 4 5 5 4 3 2 2 2 3 2 4 7 1 4 7 7 7 4 5 6 3 5 5 3 1 3 2 5 5 4 3 3
9 11 15 23 27 26 16 6 14 18 8 8 10 4 3 4 2 6 5 3 1 5 8 7 7 10 15 14 9 9 9 6 7 10 8 7 7 8 9 8 7 5 6 7 6 3 4 6 4 3 0 4 6 6 4 2 3 4 4 5 4 3 3 5 5 4 6 5 2 2 2 5 11 10 6 5 4 6 6 2 3 5 2 3 5 5 4 3
8 8 12 21 27 27 20 8 10 17 13 13 10 4 1 6 6 8 8 5 2 2 6 7 9 11 14 12 8 9 8 6 9 9 8 9 8 9 12 12 12 9 6 7 7 4 3 4 6 5 1 5 8 6 5 4 6 7 7 7 6 5 5 7 6 5 5 3 2 2 1 4 11 9 10 14 11 10 8 4 3 4 5 4 3 6 5 4
7 8 8 16 24 27 24 13 9 16 17 15 8 3 3 7 6 10 12 5 2 2 4 8 11 12 13 9 7 11 7 5 10 9 7 9 7 8 10 12 15 10 4 4 6 7 7 4 8 10 6 9 12 9 6 6 8 10 8 6 7 6 7 7 5 5 5 2 2 3 2 5 6 2 2 6 6 7 7 6 5 4 6 5 2 5 6 6
7 8 7 11 19 22 24 18 13 17 20 14 5 5 7 7 4 8 10 4 3 3 5 9 11 11 11 6 4 10 5 2 10 9 6 9 8 8 9 11 15 11 6 7 5 6 9 6 8 8 5 15 15 10 8 7 6 7 5 6 7 5 6 5 1 1 1 2 2 4 4 6 5 5 5 2 2 5 6 5 6 7 8 5 4 7 6 6
6 7 8 11 14 17 21 19 16 21 20 10 4 6 8 7 3 4 5 2 3 7 9 9 8 8 9 6 5 9 2 1 10 9 5 9 9 10 10 9 14 15 12 9 4 5 6 3 6 5 4 12 9 4 6 4 3 5 5 7 3 2 2 4 1 3 2 5 5 5 7 7 7 12 11 10 9 9 7 6 6 8 9 6 6 9 5 5
6 6 8 11 12 15 19 20 20 21 14 5 5 5 5 6 3 2 3 2 4 10 9 7 7 7 9 7 6 10 6 3 9 8 6 8 8 11 13 9 12 17 16 11 5 3 5 2 3 4 5 6 1 2 2 1 1 3 5 6 3 4 1 3 4 2 3 8 6 6 11 9 7 8 3 7 11 11 10 9 9 10 9 7 9 8 3 6
6 6 7 10 14 15 17 21 21 16 6 3 5 5 4 5 3 2 2 3 6 10 9 8 8 8 9 9 8 12 11 7 9 8 7 7 6 11 15 10 9 15 18 14 7 2 4 4 2 1 2 4 3 1 3 1 1 0 2 2 3 2 5 5 5 5 7 9 6 8 12 10 10 9 4 5 10 10 11 11 11 10 9 9 10 5 5 6
6 4 5 10 16 14 17 21 18 9 3 3 5 5 4 5 5 4 2 2 3 7 9 10 9 9 9 10 8 12 13 10 11 9 7 7 5 9 14 11 9 13 17 16 9 3 4 6 4 1 1 4 5 4 7 6 3 1 3 2 2 3 4 5 6 5 7 8 7 9 10 9 9 10 10 12 12 10 11 10 9 9 10 11 8 3 5 5
5 3 2 10 17 16 19 20 12 5 4 4 4 4 5 5 6 6 5 3 2 2 4 6 7 7 7 8 8 10 12 11 11 9 8 9 7 6 11 12 9 10 15 16 12 6 4 6 5 1 1 3 6 8 11 10 8 6 5 7 5 3 1 3 4 5 5 6 7 7 8 9 8 6 9 12 11 9 8 6 6 8 10 8 2 1 2 4
4 4 2 11 18 19 19 12 5 4 4 4 6 6 7 7 6 7 6 3 1 1 1 1 2 2 1 3 5 6 8 10 11 9 8 9 10 6 6 8 9 10 10 12 12 8 6 6 6 4 3 7 7 5 6 7 8 10 10 10 11 8 5 4 6 5 2 4 6 6 8 11 6 3 6 8 5 3 1 2 5 6 7 3 2 1 1 2
5 5 3 12 21 22 16 6 4 5 4 5 6 7 7 6 7 9 6 3 3 2 0 1 1 2 1 1 2 0 2 5 7 8 8 9 11 7 1 1 6 12 10 8 10 7 2 3 7 6 5 5 2 2 1 1 2 5 7 8 10 9 8 8 7 4 3 3 4 4 8 12 4 3 2 3 2 2 3 1 5 5 4 1 2 1 1 2
6 6 3 11 24 23 12 7 7 6 6 7 7 7 7 7 7 8 8 6 6 4 3 3 3 4 4 3 3 1 1 1 3 5 6 6 6 2 4 3 4 10 9 5 6 4 2 1 6 6 4 2 3 2 1 1 1 5 6 4 5 8 9 8 4 2 4 6 5 5 8 11 4 4 2 2 3 1 1 2 5 3 2 2 1 1 2 3
6 6 1 9 23 21 11 7 8 8 9 10 9 8 7 7 9 10 9 10 8 6 6 6 6 6 5 5 6 4 2 1 3 4 5 5 2 4 5 3 5 7 6 2 2 4 4 4 5 5 6 5 4 4 4 3 3 5 6 6 7 10 10 5 1 2 5 8 11 9 8 10 3 4 2 2 4 4 4 3 3 4 3 3 2 2 3 3
5 5 3 7 15 15 8 6 7 10 13 13 13 13 10 7 9 12 12 12 10 8 7 7 7 8 5 4 4 5 7 7 5 3 3 5 3 3 4 2 2 4 1 3 1 3 4 3 5 7 8 9 8 6 4 6 6 4 7 11 13 14 13 8 3 5 8 10 12 9 8 13 10 2 4 4 4 5 4 4 4 5 5 3 1 2 2 2
4 5 5 5 6 8 7 5 6 9 12 14 12 12 14 11 8 10 12 11 11 12 10 7 8 9 7 7 6 6 9 10 6 3 3 5 4 1 3 3 2 1 4 6 4 0 1 1 5 10 11 11 9 3 2 7 9 8 11 14 14 14 15 10 5 7 11 10 11 11 12 17 19 12 6 4 3 4 5 6 5 4 3 3 2 3 3 3
4 5 7 7 5 5 7 7 9 8 10 12 9 8 14 14 9 8 9 9 10 12 11 8 9 9 9 11 11 10 11 11 8 7 7 8 5 1 2 1 2 4 3 4 4 2 2 3 8 12 14 15 13 5 2 8 10 13 15 15 15 15 15 13 11 13 13 10 11 14 15 17 22 20 14 10 8 6 7 9 7 3 2 3 3 3 4 5
5 4 6 7 6 7 7 9 13 14 14 13 9 8 13 16 12 9 8 8 9 11 9 8 11 14 14 15 12 10 11 11 10 9 9 8 6 3 1 1 1 2 3 2 3 3 3 5 8 9 13 17 16 11 7 7 7 9 12 14 16 16 16 15 16 18 15 12 12 14 15 16 20 21 17 13 13 13 13 12 9 6 4 4 4 4 5 6
6 4 4 4 5 8 7 6 11 15 17 13 9 11 13 16 16 12 9 8 9 11 11 11 13 16 17 17 12 9 10 10 9 9 9 7 7 6 3 1 1 2 2 3 1 2 2 5 6 5 9 16 17 14 12 12 10 9 11 12 13 15 18 18 19 20 18 16 16 17 18 19 20 20 16 12 14 15 14 12 11 8 6 5 7 7 7 7
7 5 3 2 4 6 4 4 8 10 11 10 8 10 12 14 17 14 11 11 9 10 13 16 16 16 17 18 13 11 11 10 9 10 10 8 7 5 4 4 2 1 1 3 2 0 2 3 3 2 5 13 16 13 12 12 11 10 10 9 10 14 18 19 18 17 15 15 18 20 20 19 17 16 15 15 16 16 14 12 11 10 8 9 10 10 8 7
11 5 3 2 5 7 6 5 7 9 9 8 7 8 11 15 17 14 12 12 12 11 13 17 18 14 14 17 16 14 14 12 11 10 9 10 9 7 6 5 5 4 2 3 3 2 3 2 0 2 4 10 12 11 12 12 9 8 9 11 13 15 14 14 14 13 14 15 17 18 16 15 14 12 12 16 17 17 17 16 12 11 12 12 13 14 13 11
14 7 4 4 4 7 8 6 8 10 10 9 9 9 10 12 14 14 9 7 12 14 12 15 17 12 11 15 16 15 13 12 11 7 3 4 5 4 4 4 6 8 6 5 4 4 5 4 1 3 4 7 6 4 6 8 6 7 11 16 19 16 12 11 12 16 18 16 13 12 12 13 15 14 13 17 19 17 17 16 12 13 16 15 15 16 16 16
Wind_Direction
190 189 201 214 200 192 189 202 200 178 182 180 178 182 184 185 182 186 183 181 186 187 192 193 199 206 209 220 223 245 227 195 190 197 208 174 142 145 144 133 130 148 151 165 180 196 200 191 173 185 196 160 342 110 140 355 355 243 222 230 240 222 200 165 192 181 18 98 138 161 175 192 170 160 166 145 216 223 194 204 195 179 194 116 109 124 131 138
195 197 202 213 197 195 212 217 206 192 188 182 188 187 187 190 187 191 189 188 189 191 197 197 207 209 216 224 217 246 210 191 210 201 186 162 155 143 130 123 105 125 141 169 201 209 210 178 166 194 204 169 161 160 184 50 275 238 233 235 243 259 68 45 343 66 30 13 139 157 183 201 172 151 162 198 210 200 217 216 201 212 200 156 136 142 146 149
201 204 202 211 212 222 231 242 219 194 194 187 186 188 187 191 190 193 196 196 194 197 202 203 213 216 228 225 224 238 187 199 214 181 162 166 155 133 126 118 98 116 143 205 236 233 252 170 171 199 200 182 154 177 196 149 246 238 259 242 240 55 70 52 26 65 51 10 148 159 176 196 162 135 160 214 228 204 224 227 203 212 211 185 162 154 157 160
199 206 209 214 224 236 238 264 256 205 233 209 191 192 191 191 194 198 199 199 199 202 205 209 215 223 233 226 234 226 184 213 203 137 159 166 146 132 121 104 104 110 119 160 228 229 247 173 179 205 206 188 137 186 197 113 259 192 238 266 28 27 68 70 57 65 53 2 195 147 160 196 164 140 183 217 238 225 231 234 220 226 222 185 166 161 164 169
204 211 211 219 229 231 228 243 248 243 311 267 221 198 194 198 200 202 202 200 201 203 207 212 217 228 232 231 233 215 211 217 149 123 164 161 140 130 111 96 97 91 117 160 181 182 203 183 180 196 212 186 156 192 182 102 323 211 194 13 30 345 7 74 74 55 39 354 174 150 169 183 139 179 218 223 234 231 250 268 225 246 41 149 160 167 169 177
211 211 211 219 219 221 234 234 223 234 264 241 218 202 203 205 205 206 205 202 203 205 208 213 218 228 229 237 232 220 238 215 93 152 163 155 141 124 102 89 75 79 119 219 210 196 198 191 190 193 208 185 175 188 130 119 258 250 157 86 48 5 28 72 77 44 352 291 163 161 147 131 167 216 219 228 238 236 64 53 55 65 70 129 157 167 174 185
201 204 214 214 208 218 243 238 217 227 240 225 212 203 198 200 206 208 206 204 207 208 209 214 218 228 229 225 216 221 235 177 89 174 160 153 142 117 91 78 58 70 81 255 221 202 197 203 204 196 198 171 180 168 107 141 217 267 167 109 73 29 44 52 58 71 321 307 57 22 1 203 221 226 205 234 242 244 124 93 84 86 97 142 164 173 186 193
190 205 220 215 214 224 239 253 239 234 234 224 216 201 185 185 194 197 202 203 205 208 211 215 216 227 223 212 230 222 218 114 126 171 158 154 140 112 82 58 31 50 346 272 265 230 204 210 202 197 198 143 158 147 134 177 197 257 148 112 103 71 81 73 83 122 142 286 347 313 248 236 237 316 276 249 246 245 224 146 130 131 131 169 188 189 194 198
187 203 216 214 218 220 227 249 251 253 245 223 215 196 178 176 180 187 194 196 200 205 207 210 214 226 214 215 252 229 184 111 153 165 156 153 134 102 75 45 18 36 215 243 294 258 215 214 188 203 179 97 146 142 160 216 188 123 116 121 128 113 99 103 130 123 138 226 161 234 235 224 93 12 267 251 249 236 208 188 180 187 196 203 202 204 203 204
184 194 202 206 212 213 222 236 248 286 271 233 215 197 182 179 183 186 187 190 191 193 197 203 205 205 207 222 238 222 102 109 157 160 153 149 127 97 72 69 95 216 212 152 272 266 263 255 132 176 84 106 148 127 109 268 58 100 121 119 121 125 123 149 156 133 162 158 183 242 246 219 133 208 251 243 237 172 187 224 216 217 229 225 214 211 212 211
171 181 193 200 209 213 223 237 266 294 288 292 281 212 191 191 194 187 188 189 184 186 189 193 194 190 221 238 233 210 89 116 156 159 154 147 130 113 132 149 109 161 221 128 70 346 327 39 111 172 177 137 141 105 66 36 75 124 135 131 130 144 149 176 180 156 189 154 189 260 276 258 169 210 245 210 103 152 201 225 215 225 237 233 227 215 211 216
158 167 192 203 206 214 222 221 257 293 303 311 319 118 184 201 205 190 188 189 185 188 184 184 192 189 231 242 244 127 105 126 154 158 155 145 131 129 144 145 124 129 289 128 96 52 72 86 140 250 86 154 150 117 107 108 104 137 176 182 154 181 187 181 171 161 215 179 162 265 278 253 216 227 241 186 137 160 192 224 218 226 233 230 230 218 211 215
165 167 190 210 208 210 222 209 253 298 303 296 314 132 191 200 204 194 192 192 189 189 185 186 186 185 233 231 125 104 113 129 148 152 152 142 123 121 124 119 122 128 99 116 110 103 102 59 323 67 69 185 132 106 128 128 166 155 203 251 171 205 201 175 159 157 213 160 141 241 269 255 223 226 225 146 153 182 213 238 236 234 232 226 224 221 223 215
179 176 184 227 225 206 227 227 268 295 299 301 274 188 193 194 194 190 193 193 191 191 187 188 180 187 231 196 98 135 130 125 139 148 154 144 120 109 107 105 110 122 120 110 105 106 100 62 90 115 56 6 100 142 154 140 199 172 184 249 217 229 172 151 160 174 200 158 154 222 255 271 267 205 136 116 168 207 239 246 242 242 235 228 223 223 230 222
187 188 191 223 213 161 185 216 288 294 312 350 171 183 185 189 182 179 191 189 189 193 188 194 188 205 230 171 105 171 151 134 145 162 160 149 141 130 114 106 103 106 108 102 97 93 87 69 139 126 79 50 138 172 165 157 203 187 194 214 208 231 150 138 159 188 205 151 174 208 247 259 265 105 101 101 172 204 245 253 250 250 244 239 231 228 237 232
185 193 198 214 204 168 156 150 328 328 336 339 172 179 178 175 165 169 179 175 178 176 166 189 189 243 253 155 118 172 172 175 175 174 165 154 150 139 128 118 105 101 99 92 91 88 76 62 62 101 104 145 184 194 184 185 200 195 228 227 184 213 193 151 152 190 213 142 186 213 253 267 236 117 121 141 171 203 238 252 252 252 251 248 238 232 236 235
188 192 196 207 217 201 188 196 221 303 312 233 177 164 156 147 146 147 150 155 156 147 151 206 175 242 263 114 135 177 160 174 176 178 176 163 142 138 141 134 118 116 115 103 101 105 78 87 122 217 176 199 213 212 208 210 211 195 219 241 201 219 231 185 147 154 188 214 218 218 239 259 263 268 229 174 173 195 231 251 255 258 258 256 248 238 236 234
186 187 188 195 205 235 252 246 240 274 269 198 174 144 127 121 126 120 120 133 117 106 151 275 179 228 221 158 158 129 123 145 160 171 183 172 153 155 161 148 144 149 148 143 160 178 161 154 208 210 183 209 211 208 216 225 252 209 196 226 222 215 237 246 153 148 178 212 239 235 241 254 259 266 266 247 219 218 240 252 257 261 260 259 253 245 241 236
174 168 168 181 199 233 261 282 319 287 239 159 136 117 106 105 117 122 133 161 156 149 174 179 186 208 152 144 112 88 114 133 142 150 169 168 163 172 177 153 163 177 180 175 173 174 173 177 204 220 199 206 207 215 231 336 351 311 203 251 257 231 233 208 108 121 197 233 243 246 255 262 261 262 266 266 259 254 257 255 256 257 255 254 250 247 242 238
180 175 172 183 206 224 272 315 311 291 175 143 131 120 123 141 154 153 168 216 231 340 359 237 184 117 90 115 108 113 119 123 143 148 156 162 163 171 168 159 173 201 215 199 152 143 249 212 202 218 220 218 210 210 255 26 4 325 304 281 265 269 266 117 103 104 222 265 258 254 264 270 269 268 269 272 272 270 264 255 252 250 247 244 242 244 240 240
194 189 187 189 192 192 322 351 315 232 175 160 160 185 212 175 198 165 162 206 218 41 356 14 35 55 82 104 136 142 130 127 163 150 159 167 173 183 172 171 192 199 194 122 103 123 223 229 223 222 215 129 184 169 80 321 304 282 271 276 259 256 264 102 100 132 153 259 271 274 277 274 273 271 270 271 269 268 262 253 250 248 246 244 242 243 242 243
208 201 194 194 189 187 243 342 277 259 200 187 213 248 320 350 323 68 142 220 172 143 267 32 46 136 83 107 165 180 212 168 155 161 166 171 189 201 172 180 211 196 148 135 147 181 210 232 231 205 111 87 96 138 212 240 254 249 250 268 265 262 269 106 99 125 173 237 280 291 287 278 279 276 267 260 257 260 259 254 253 254 253 248 244 246 246 246
218 210 203 198 193 200 226 266 277 299 228 221 244 246 303 329 147 79 304 258 171 160 206 210 225 195 142 152 183 198 215 176 162 169 170 177 192 207 179 189 216 196 162 192 208 214 219 230 216 136 117 135 142 170 202 222 234 233 234 251 250 256 279 244 111 140 195 228 291 297 288 276 275 272 264 253 246 252 259 259 258 257 254 251 250 252 251 250
229 219 212 199 193 198 196 236 277 290 241 246 249 234 245 279 208 306 277 267 213 151 187 210 260 226 176 134 176 197 220 218 177 161 169 185 172 170 200 202 215 207 196 210 216 231 235 99 88 125 152 195 186 178 199 219 234 226 223 238 250 260 265 260 5 321 223 214 277 289 283 268 254 250 259 255 233 243 253 256 258 247 243 247 252 252 247 248
229 226 218 201 192 185 172 226 253 246 228 252 248 230 229 241 238 300 273 249 225 161 171 191 197 216 171 126 167 189 230 221 191 139 166 191 171 152 196 211 223 219 214 211 217 240 237 104 114 156 167 205 203 200 207 221 247 233 213 225 246 266 282 287 342 335 274 228 181 291 297 283 208 227 257 263 235 245 240 232 241 240 235 233 237 242 239 240
221 226 222 205 189 174 168 229 223 208 210 241 248 219 216 220 200 282 245 249 246 174 147 175 172 183 168 152 156 144 237 204 95 100 156 191 247 162 193 166 224 243 216 198 222 253 203 121 151 166 169 185 204 228 208 207 247 249 220 245 251 262 285 295 316 312 288 298 189 188 290 285 258 249 257 260 258 260 254 242 247 249 244 232 227 237 238 238
217 221 222 209 189 176 168 192 177 178 206 243 229 196 197 201 184 227 214 246 250 167 140 169 187 178 163 161 163 158 216 151 107 114 150 174 190 45 232 183 162 241 177 151 234 228 145 164 188 179 184 188 208 231 189 193 233 247 28 352 264 241 249 257 297 270 288 322 268 192 225 271 274 249 236 240 250 259 261 259 258 256 253 246 231 232 239 249
219 220 221 211 197 189 185 160 167 186 278 304 197 189 188 187 186 217 220 237 231 138 143 149 124 135 126 153 179 172 84 121 139 150 89 49 195 174 230 207 195 197 173 183 226 196 142 184 190 183 193 204 211 223 164 191 219 11 57 19 76 104 155 173 276 283 307 322 283 192 179 256 281 241 207 220 232 245 253 255 255 251 242 227 182 135 79 351
220 219 222 216 206 204 205 196 184 220 275 297 183 185 178 178 207 216 216 227 170 113 136 134 132 140 132 152 185 166 99 101 283 122 112 120 249 264 236 229 228 202 183 208 234 14 74 210 205 195 206 209 144 49 53 201 196 132 132 95 84 93 76 96 269 301 316 289 274 192 169 244 290 267 183 194 215 227 239 244 244 218 145 131 124 119 125 148
216 214 221 215 203 203 209 216 222 227 262 259 172 170 168 180 218 194 196 217 179 125 91 125 166 163 155 161 179 183 169 101 66 126 144 163 168 224 275 266 256 210 182 228 252 83 88 44 320 224 222 150 106 68 23 27 119 143 147 120 105 119 104 150 246 306 278 267 262 176 172 206 290 281 162 170 204 227 225 196 167 152 135 130 124 127 137 140
209 209 217 211 201 199 201 215 218 217 240 196 153 149 176 207 243 204 197 213 311 150 135 154 159 157 168 174 173 180 181 142 137 157 158 160 173 186 192 179 210 206 200 239 240 173 149 175 167 147 78 117 114 90 45 50 129 158 158 157 164 169 176 206 201 167 234 253 257 139 178 200 249 260 155 163 203 257 246 165 161 258 160 133 139 146 144 147
207 208 212 212 208 203 199 210 212 211 206 149 134 118 207 195 234 236 205 98 143 179 160 165 165 167 179 182 176 173 175 165 166 178 177 175 185 188 195 194 172 185 226 225 208 170 195 207 158 100 20 186 155 117 87 89 179 199 184 177 202 219 206 217 208 194 228 235 102 94 197 221 244 254 241 232 241 250 257 295 304 287 274 160 153 156 159 167
208 211 211 211 208 203 206 212 203 204 184 140 118 53 248 198 201 218 204 160 163 165 138 148 162 171 176 183 185 169 171 178 173 186 191 183 197 203 208 213 195 201 236 210 193 176 193 205 162 154 194 210 198 169 147 173 188 196 191 182 200 214 223 231 218 215 233 220 100 107 119 250 260 268 254 245 237 231 246 268 263 264 267 252 170 163 176 185
209 211 211 211 208 208 212 211 203 199 172 138 118 92 190 223 205 201 208 194 88 56 98 136 153 167 177 184 180 163 169 191 171 177 188 182 206 213 208 218 212 218 248 211 202 193 212 241 181 177 168 174 199 214 191 165 178 199 203 200 212 218 233 241 234 242 245 217 128 149 163 238 253 337 291 256 259 255 269 281 263 254 257 256 216 196 192 192
214 206 207 211 211 214 214 211 207 187 161 139 139 161 190 223 213 206 214 183 121 115 108 136 149 165 185 192 175 170 180 204 174 176 188 188 208 211 202 210 207 208 211 216 217 191 221 241 164 156 149 164 185 217 195 157 175 202 202 216 230 234 241 254 288 326 305 322 212 191 227 248 257 296 279 246 278 250 245 254 252 259 259 252 249 239 212 189
218 210 215 212 211 213 210 210 199 177 160 147 164 176 195 212 204 202 205 159 146 141 128 147 163 175 190 188 187 189 197 67 174 179 199 206 221 220 213 211 200 199 197 201 206 185 220 243 134 126 153 169 182 215 188 180 194 181 186 209 218 26 269 252 231 98 72 277 250 216 249 267 280 284 259 212 212 225 222 228 233 249 257 250 249 249 223 162
220 220 222 218 215 213 209 208 193 175 167 168 185 185 193 207 230 216 201 209 166 150 147 171 185 190 194 190 193 191 182 146 173 185 194 197 221 223 217 220 203 201 203 205 223 213 219 252 154 167 176 165 16 347 179 338 21 159 195 191 116 44 329 251 249 221 227 252 253 231 249 262 264 276 261 180 208 228 231 233 233 237 244 245 248 246 179 145
229 229 236 225 213 210 208 201 185 171 171 190 195 204 189 195 230 253 243 234 182 171 186 207 197 194 201 201 192 179 176 175 177 192 197 185 211 213 204 212 207 202 207 211 227 218 201 231 209 167 170 135 87 225 198 178 90 76 284 170 136 232 220 204 225 235 237 246 256 247 251 256 244 247 263 211 216 226 229 228 231 233 232 239 245 227 140 153
236 235 251 216 203 206 200 187 172 162 192 195 196 211 200 202 208 200 226 269 225 198 205 216 211 206 212 218 201 172 177 190 178 183 201 188 201 205 194 196 201 202 203 203 212 202 181 221 221 58 20 128 134 201 206 181 150 26 307 218 193 250 228 209 209 213 232 240 250 258 256 253 243 246 258 251 242 242 239 232 229 231 231 237 241 197 147 168
226 241 237 185 190 198 187 175 165 174 207 197 200 195 184 202 203 193 200 218 287 247 209 221 221 211 218 232 221 179 181 199 189 188 203 188 190 204 191 192 194 196 198 197 208 213 183 215 221 134 50 174 178 205 206 189 170 176 216 212 200 199 243 276 238 215 235 242 246 259 262 262 258 247 252 257 255 250 248 241 234 235 239 239 229 121 154 166
212 251 219 169 180 180 170 166 172 194 207 206 207 197 187 199 197 189 196 203 246 352 41 275 215 174 197 233 224 190 186 204 200 198 204 194 205 213 185 199 193 170 178 195 207 211 197 210 214 169 176 209 208 205 209 202 184 187 200 204 205 196 185 231 230 207 210 246 253 263 270 273 270 223 244 256 249 230 217 253 250 253 261 256 94 78 228 178
213 231 185 165 176 169 162 186 202 186 219 219 205 201 188 194 194 182 176 181 224 243 30 306 223 166 155 220 246 303 190 213 208 205 211 208 217 217 118 253 197 161 160 190 203 202 192 215 219 211 199 202 188 78 43 311 243 230 224 215 214 202 192 212 218 190 173 216 263 276 267 271 268 122 192 225 176 119 96 216 256 265 281 297 101 123 246 227
219 218 146 163 178 171 167 211 203 194 225 218 212 208 183 186 195 179 168 175 193 196 189 223 227 218 225 218 228 324 44 265 246 228 233 234 231 223 70 72 170 170 173 190 193 178 83 172 222 235 228 167 114 104 101 55 288 256 245 224 222 216 212 219 227 211 188 190 218 231 244 260 272 89 106 122 106 131 160 204 246 256 283 288 209 176 203 227
224 226 205 182 188 183 183 205 199 207 220 214 219 216 196 201 203 187 180 182 183 181 189 204 207 209 220 210 211 214 165 181 270 269 261 257 272 45 62 116 170 190 194 181 176 172 162 184 203 222 233 213 188 194 200 179 195 234 233 216 221 224 218 209 183 248 227 208 216 225 238 252 252 88 120 173 149 195 195 172 218 246 257 255 236 200 193 203
221 228 231 204 199 197 206 218 208 211 216 216 219 215 207 211 208 201 198 192 188 185 190 201 195 189 189 174 187 203 187 192 226 254 258 260 264 50 35 3 206 211 253 19 21 184 183 192 190 201 222 222 212 216 212 184 176 213 228 217 216 215 212 211 202 223 234 229 226 229 245 255 256 159 140 171 180 202 204 178 198 228 238 240 240 218 208 195
214 220 212 196 203 215 229 246 240 226 217 215 218 215 212 210 206 207 209 204 197 195 200 205 193 185 179 169 177 197 196 197 212 222 223 242 246 86 35 3 24 28 0 5 6 86 161 234 210 211 225 229 232 264 119 150 164 192 213 213 212 211 210 215 221 221 229 238 240 236 242 257 263 251 211 201 207 208 221 220 210 208 224 235 237 222 213 216
224 222 207 192 196 221 229 232 231 231 224 217 213 214 215 213 206 199 208 211 199 200 213 214 195 189 183 184 198 209 202 196 205 222 228 230 232 130 65 41 54 52 24 352 354 58 132 239 228 224 236 243 251 275 130 155 181 201 210 208 206 209 208 208 219 226 227 234 244 241 237 248 261 260 252 258 266 255 247 242 229 209 214 220 218 217 216 218
228 232 216 209 207 210 219 221 218 224 229 224 221 225 221 219 216 200 196 209 206 202 212 215 207 204 198 196 203 210 206 201 204 217 225 224 220 211 79 58 47 48 65 22 353 61 148 237 237 230 247 253 254 261 250 235 230 219 220 215 204 204 206 207 221 228 226 228 242 247 242 244 258 264 261 265 272 270 266 260 247 224 199 193 201 215 225 221
226 242 241 250 235 215 211 202 201 216 227 225 224 230 225 223 223 210 186 195 210 207 207 214 214 209 209 210 210 210 207 200 202 212 213 210 206 204 218 229 342 353 57 109 38 54 164 232 237 229 254 259 256 256 253 255 258 248 240 231 212 205 205 208 220 227 227 232 244 254 257 255 258 264 270 274 273 272 275 271 252 228 204 201 215 217 218 221
222 230 224 243 244 231 228 186 180 202 220 220 222 226 225 226 226 221 203 195 200 201 203 215 221 213 213 217 216 221 218 201 202 210 202 202 204 190 207 209 149 17 25 126 117 325 212 228 221 182 246 259 258 257 254 254 256 251 247 241 226 219 214 213 220 226 230 237 242 249 259 261 259 263 274 276 271 272 273 261 244 237 228 225 233 234 225 224
234 264 264 223 222 221 222 208 196 204 212 209 210 216 219 222 223 225 221 207 208 208 201 212 223 221 218 220 219 225 226 214 219 223 201 200 207 194 197 198 155 146 175 156 138 161 196 218 110 149 221 253 254 250 249 251 255 254 250 242 232 227 223 219 220 221 222 228 234 240 249 258 262 265 268 269 268 269 266 257 250 252 249 240 240 244 242 239
230 260 266 236 230 217 213 215 212 216 219 209 202 208 216 221 221 224 224 209 216 224 217 215 223 225 224 224 222 226 230 228 236 247 221 207 219 199 197 202 170 157 161 168 156 157 176 185 173 173 219 260 258 229 229 237 239 238 234 231 229 229 232 234 232 228 224 222 227 235 239 253 267 269 263 263 266 267 266 263 252 249 252 249 243 244 247 249